Weather History for KTBN - March, 2014

Change the Weather History Date:

Thursday, March 27, 2014

  Actual Average Record
Temperature  
Mean Temperature 50 °F -  
Max Temperature 59 °F 58 °F 82 °F (2012)
Min Temperature 43 °F 42 °F 23 °F (2013)
Degree Days  
Heating Degree Days 14    
Moisture  
Dew Point 46 °F    
Average Humidity 79    
Maximum Humidity 100    
Minimum Humidity 54    
Precipitation  
Precipitation 0.13 in - - ()
Sea Level Pressure  
Sea Level Pressure 29.70 in    
Wind  
Wind Speed 16 mph (South)    
Max Wind Speed 24 mph    
Max Gust Speed 37 mph    
Visibility 10 miles    
Events Rain , Thunderstorm    
Averages and records for this station are not official NWS values.
T = Trace of Precipitation, MM = Missing Value Source: NWS Daily Summary

Daily Weather History Graph

Daily Weather History Graph

Search for Another Location

Airport or City:

Trip Planner

Search our weather history database for the weather conditions in past years. The results will help you decide how hot, cold, wet, or windy it might be!

Date:

Astronomy

Mar. 27, 2014 Rise Set
Actual Time 7:01 AM CDT 7:26 PM CDT
Civil Twilight 6:35 AM CDT 7:53 PM CDT
Nautical Twilight 6:04 AM CDT 8:24 PM CDT
Astronomical Twilight 5:32 AM CDT 8:55 PM CDT
Moon 4:49 AM CDT (3/27) 4:18 PM CDT (3/27)
Length of Visible Light 13h 18m
Length of Day
12h 25m
Waning Crescent, 13% of the Moon is Illuminated
Mar 27
Waning Crescent
Mar 30
New
Apr 7
First Quarter
Apr 15
Full
Apr 22
Last Quarter

Hourly Weather History & Observations

Time (CDT) Temp. Windchill Dew Point Humidity Pressure Visibility Wind Dir Wind Speed Gust Speed Precip Events Conditions
12:58 AM 43.0 °F 34.8 °F 36.9 °F 79% 29.90 in 10.0 mi SSE 18.4 mph 25.3 mph N/A   Overcast
1:58 AM 45.5 °F 38.6 °F 32.9 °F 61% 29.87 in 10.0 mi SSE 16.1 mph 25.3 mph N/A   Overcast
2:58 AM 47.1 °F - 31.8 °F 55% 29.83 in 10.0 mi South 15.0 mph 26.5 mph N/A   Overcast
3:58 AM 48.0 °F - 31.8 °F 54% 29.81 in 10.0 mi South 15.0 mph 23.0 mph N/A   Overcast
4:58 AM 47.7 °F - 32.0 °F 55% 29.78 in 10.0 mi South 16.1 mph 23.0 mph N/A   Overcast
5:58 AM 47.7 °F - 32.9 °F 57% 29.76 in 10.0 mi South 13.8 mph 25.3 mph N/A   Overcast
6:58 AM 48.4 °F - 34.7 °F 59% 29.75 in 10.0 mi South 15.0 mph 29.9 mph N/A   Overcast
7:43 AM 48.2 °F - 37.4 °F 66% 29.74 in 10.0 mi South 17.3 mph 26.5 mph N/A   Overcast
7:58 AM 48.9 °F - 37.0 °F 64% 29.75 in 10.0 mi South 15.0 mph 28.8 mph N/A   Overcast
8:58 AM 50.5 °F - 39.6 °F 66% 29.75 in 10.0 mi South 18.4 mph 28.8 mph N/A   Overcast
9:58 AM 52.2 °F - 42.3 °F 69% 29.74 in 10.0 mi South 16.1 mph 31.1 mph N/A   Overcast
10:58 AM 52.7 °F - 44.8 °F 74% 29.75 in 10.0 mi South 17.3 mph 25.3 mph N/A   Overcast
11:58 AM 54.1 °F - 46.9 °F 77% 29.70 in 10.0 mi South 19.6 mph 29.9 mph N/A   Overcast
12:59 PM - - - N/A% - - South 17.3 mph 36.8 mph N/A   Unknown
1:04 PM 55.4 °F - 48.2 °F 77% 29.65 in 10.0 mi South 19.6 mph 36.8 mph N/A   Overcast
1:58 PM 55.9 °F - 49.8 °F 80% 29.62 in 10.0 mi South 24.2 mph 29.9 mph N/A   Overcast
2:58 PM 56.5 °F - 52.0 °F 85% 29.61 in 10.0 mi South 23.0 mph 31.1 mph N/A   Overcast
3:58 PM 57.2 °F - 53.2 °F 87% 29.59 in 10.0 mi SSW 16.1 mph 32.2 mph N/A   Overcast
4:58 PM 58.5 °F - 53.6 °F 84% 29.59 in 10.0 mi South 19.6 mph 31.1 mph N/A   Overcast
5:58 PM 58.8 °F - 54.1 °F 84% 29.59 in 10.0 mi South 15.0 mph 28.8 mph N/A   Overcast
6:43 PM 57.2 °F - 55.4 °F 94% 29.58 in 10.0 mi South 17.3 mph 29.9 mph N/A   Scattered Clouds
6:58 PM 56.8 °F - 55.0 °F 94% 29.57 in 10.0 mi South 17.3 mph 27.6 mph N/A   Scattered Clouds
7:58 PM 56.3 °F - 55.9 °F 99% 29.57 in 10.0 mi South 15.0 mph 26.5 mph N/A   Clear
9:11 PM 57.2 °F - 57.2 °F 100% 29.64 in 10.0 mi SSW 8.1 mph - N/A Rain , Thunderstorm Light Rain
9:56 PM 53.6 °F - 53.6 °F 100% 29.69 in 10.0 mi WSW 6.9 mph - N/A Rain Light Rain
9:58 PM 53.6 °F - 53.6 °F 100% 29.70 in 10.0 mi WSW 8.1 mph - 0.13 in Rain Light Rain
10:06 PM 53.6 °F - 53.6 °F 100% 29.70 in 10.0 mi SW 4.6 mph - N/A   Mostly Cloudy
10:58 PM 53.1 °F - 53.1 °F 100% 29.73 in 10.0 mi West 6.9 mph - 0.00 in   Mostly Cloudy
11:58 PM 50.9 °F - 49.3 °F 94% 29.78 in 10.0 mi West 11.5 mph - N/A   Clear